• In Uzbekistan
  • List of Countries
  • For 7 days
  • Water Temperature
  • Satellite Maps
  • Weather Map
  • Weather Widgets
  • user-avatar
    Login

    Hourly Weather Balasore

    Today, 19 September, Wednesday

    Time Temperature Precipitation Wind Pressure Humidity
    00:00 +31°C° 0 mm 1 mps 752 mmHg 66%
    01:00 +30°C° 0 mm 2 mps 751 mmHg 67%
    02:00 +30°C° 0 mm 2 mps 751 mmHg 68%
    03:00 +30°C° 0 mm 2 mps 751 mmHg 68%
    04:00 +30°C° 0 mm 2 mps 751 mmHg 69%
    05:00 +29°C° 0 mm 2 mps 751 mmHg 70%
    06:00 +29°C° 0 mm 2 mps 751 mmHg 70%
    07:00 +31°C° 0 mm 3 mps 752 mmHg 67%
    08:00 +33°C° 0 mm 3 mps 752 mmHg 63%
    09:00 +35°C° 0 mm 4 mps 752 mmHg 60%
    10:00 +36°C° 0 mm 4 mps 752 mmHg 56%
    11:00 +37°C° 0 mm 4 mps 752 mmHg 52%
    12:00 +38°C° 0 mm 4 mps 751 mmHg 48%
    13:00 +38°C° 0 mm 4 mps 751 mmHg 48%
    14:00 +38°C° 0 mm 3 mps 750 mmHg 48%
    15:00 +38°C° 0 mm 3 mps 749 mmHg 48%
    16:00 +37°C° 0 mm 3 mps 749 mmHg 53%
    17:00 +36°C° 0 mm 2 mps 749 mmHg 57%
    18:00 +35°C° 0 mm 2 mps 749 mmHg 62%
    19:00 +34°C° 0 mm 2 mps 750 mmHg 64%
    20:00 +34°C° 0 mm 2 mps 750 mmHg 65%
    21:00 +32°C° 0 mm 1 mps 751 mmHg 66%
    22:00 +32°C° 0.1 mm 1 mps 751 mmHg 67%
    23:00 +31°C° 0.1 mm 1 mps 751 mmHg 68%

    Tomorrow, 20 September, Thursday

    Time Temperature Precipitation Wind Pressure Humidity
    00:00 +31°C° 0.1 mm 1 mps 751 mmHg 69%
    01:00 +31°C° 0.8 mm 1 mps 750 mmHg 71%
    02:00 +30°C° 0.8 mm 1 mps 750 mmHg 74%
    03:00 +30°C° 0.8 mm 2 mps 750 mmHg 76%
    04:00 +29°C° 1.1 mm 2 mps 750 mmHg 78%
    05:00 +29°C° 1.1 mm 3 mps 750 mmHg 80%
    06:00 +29°C° 1.1 mm 3 mps 750 mmHg 83%
    07:00 +29°C° 1.4 mm 4 mps 751 mmHg 82%
    08:00 +30°C° 1.4 mm 4 mps 751 mmHg 82%
    09:00 +30°C° 1.4 mm 4 mps 752 mmHg 82%
    10:00 +30°C° 1.6 mm 5 mps 751 mmHg 80%
    11:00 +32°C° 1.6 mm 5 mps 751 mmHg 78%
    12:00 +32°C° 1.6 mm 6 mps 751 mmHg 76%
    13:00 +32°C° 1.9 mm 6 mps 750 mmHg 78%
    14:00 +32°C° 1.9 mm 6 mps 750 mmHg 80%
    15:00 +30°C° 1.9 mm 5 mps 749 mmHg 82%
    16:00 +30°C° 1.9 mm 5 mps 749 mmHg 84%
    17:00 +29°C° 1.9 mm 5 mps 749 mmHg 86%
    18:00 +29°C° 1.9 mm 5 mps 749 mmHg 88%
    19:00 +29°C° 2.2 mm 5 mps 750 mmHg 88%
    20:00 +29°C° 2.2 mm 6 mps 750 mmHg 88%
    21:00 +29°C° 2.2 mm 6 mps 751 mmHg 89%
    22:00 +29°C° 2.1 mm 6 mps 751 mmHg 89%
    23:00 +29°C° 2.1 mm 6 mps 751 mmHg 89%

    Day after tomorrow, 21 September, Friday

    Time Temperature Precipitation Wind Pressure Humidity
    00:00 +29°C° 2.1 mm 6 mps 750 mmHg 89%
    01:00 +29°C° 2 mm 6 mps 750 mmHg 89%
    02:00 +29°C° 2 mm 7 mps 750 mmHg 89%
    03:00 +29°C° 2 mm 7 mps 749 mmHg 89%
    04:00 +29°C° 2.4 mm 7 mps 749 mmHg 89%
    05:00 +29°C° 2.4 mm 7 mps 749 mmHg 89%
    06:00 +29°C° 2.4 mm 7 mps 750 mmHg 89%
    07:00 +29°C° 2.1 mm 7 mps 750 mmHg 87%
    08:00 +30°C° 2.1 mm 7 mps 751 mmHg 86%
    09:00 +31°C° 2.1 mm 8 mps 752 mmHg 84%
    10:00 +32°C° 1.8 mm 8 mps 752 mmHg 84%
    11:00 +32°C° 1.8 mm 7 mps 752 mmHg 83%
    12:00 +32°C° 1.8 mm 7 mps 752 mmHg 83%
    13:00 +32°C° 1.7 mm 7 mps 752 mmHg 83%
    14:00 +32°C° 1.7 mm 7 mps 751 mmHg 82%
    15:00 +32°C° 1.7 mm 6 mps 751 mmHg 82%
    16:00 +30°C° 1.7 mm 6 mps 751 mmHg 83%
    17:00 +30°C° 1.7 mm 5 mps 751 mmHg 85%
    18:00 +30°C° 1.7 mm 5 mps 752 mmHg 87%
    19:00 +29°C° 1.5 mm 4 mps 752 mmHg 87%
    20:00 +29°C° 1.5 mm 4 mps 753 mmHg 87%
    21:00 +29°C° 1.5 mm 3 mps 754 mmHg 87%
    22:00 +28°C° 1.2 mm 3 mps 754 mmHg 88%
    23:00 +28°C° 1.2 mm 3 mps 754 mmHg 88%

    22 September, Saturday

    Time Temperature Precipitation Wind Pressure Humidity
    00:00 +28°C° 1.2 mm 3 mps 754 mmHg 89%
    01:00 +28°C° 1.4 mm 2 mps 753 mmHg 89%
    02:00 +28°C° 1.4 mm 2 mps 753 mmHg 89%
    03:00 +28°C° 1.4 mm 2 mps 753 mmHg 89%
    04:00 +28°C° 0.9 mm 2 mps 753 mmHg 89%
    05:00 +28°C° 0.9 mm 1 mps 753 mmHg 89%
    06:00 +28°C° 0.9 mm 1 mps 753 mmHg 88%
    07:00 +28°C° 0.9 mm 1 mps 754 mmHg 85%
    08:00 +29°C° 0.9 mm 1 mps 755 mmHg 82%
    09:00 +30°C° 0.9 mm 1 mps 755 mmHg 79%
    10:00 +30°C° 0.8 mm 2 mps 755 mmHg 78%
    11:00 +30°C° 0.8 mm 2 mps 755 mmHg 77%
    12:00 +31°C° 0.8 mm 3 mps 755 mmHg 76%
    13:00 +31°C° 0.3 mm 3 mps 754 mmHg 76%
    14:00 +31°C° 0.3 mm 3 mps 753 mmHg 76%
    15:00 +32°C° 0.3 mm 4 mps 753 mmHg 75%
    16:00 +32°C° 0.1 mm 4 mps 753 mmHg 78%
    17:00 +30°C° 0.1 mm 3 mps 753 mmHg 81%
    18:00 +29°C° 0.1 mm 3 mps 753 mmHg 84%
    19:00 +29°C° 0.3 mm 3 mps 754 mmHg 85%
    20:00 +29°C° 0.3 mm 3 mps 755 mmHg 86%
    21:00 +28°C° 0.3 mm 3 mps 755 mmHg 87%
    22:00 +28°C° 0.2 mm 3 mps 755 mmHg 88%
    23:00 +28°C° 0.2 mm 3 mps 755 mmHg 89%

    23 September, Sunday

    Time Temperature Precipitation Wind Pressure Humidity
    00:00 +28°C° 0.2 mm 3 mps 755 mmHg 89%
    01:00 +28°C° 0.1 mm 3 mps 755 mmHg 89%
    02:00 +28°C° 0.1 mm 2 mps 755 mmHg 90%
    03:00 +28°C° 0.1 mm 2 mps 754 mmHg 90%
    04:00 +28°C° 0.1 mm 2 mps 755 mmHg 90%
    05:00 +28°C° 0.1 mm 2 mps 755 mmHg 90%
    06:00 +27°C° 0.1 mm 1 mps 755 mmHg 90%
    07:00 +29°C° 0 mm 2 mps 756 mmHg 86%
    08:00 +30°C° 0 mm 2 mps 756 mmHg 81%
    09:00 +31°C° 0 mm 2 mps 757 mmHg 77%
    10:00 +33°C° 0.1 mm 3 mps 756 mmHg 73%
    11:00 +33°C° 0.1 mm 3 mps 756 mmHg 69%
    12:00 +34°C° 0.1 mm 3 mps 756 mmHg 65%
    13:00 +34°C° 0.5 mm 3 mps 755 mmHg 66%
    14:00 +34°C° 0.5 mm 4 mps 754 mmHg 67%
    15:00 +34°C° 0.5 mm 4 mps 753 mmHg 68%
    16:00 +33°C° 0.4 mm 4 mps 754 mmHg 73%
    17:00 +32°C° 0.4 mm 4 mps 754 mmHg 78%
    18:00 +30°C° 0.4 mm 4 mps 754 mmHg 82%
    19:00 +30°C° 0 mm 4 mps 755 mmHg 84%
    20:00 +29°C° 0 mm 4 mps 755 mmHg 85%
    21:00 +29°C° 0 mm 4 mps 756 mmHg 87%
    22:00 +29°C° 0 mm 4 mps 756 mmHg 87%
    23:00 +28°C° 0 mm 4 mps 755 mmHg 88%

    24 September, Monday

    Time Temperature Precipitation Wind Pressure Humidity
    00:00 +28°C° 0 mm 4 mps 755 mmHg 89%
    01:00 +28°C° 0 mm 4 mps 755 mmHg 90%
    02:00 +28°C° 0 mm 3 mps 755 mmHg 91%
    03:00 +28°C° 0 mm 3 mps 754 mmHg 91%
    04:00 +27°C° 0 mm 3 mps 754 mmHg 92%
    05:00 +27°C° 0 mm 3 mps 755 mmHg 92%
    06:00 +27°C° 0 mm 3 mps 755 mmHg 92%
    07:00 +29°C° 0 mm 3 mps 755 mmHg 86%
    08:00 +30°C° 0 mm 3 mps 756 mmHg 80%
    09:00 +31°C° 0 mm 3 mps 756 mmHg 74%
    10:00 +34°C° 0 mm 4 mps 756 mmHg 69%
    11:00 +35°C° 0 mm 4 mps 756 mmHg 64%
    12:00 +36°C° 0 mm 4 mps 755 mmHg 59%
    13:00 +36°C° 0 mm 4 mps 755 mmHg 59%
    14:00 +36°C° 0 mm 4 mps 754 mmHg 58%
    15:00 +36°C° 0 mm 4 mps 753 mmHg 58%
    16:00 +35°C° 0.1 mm 4 mps 753 mmHg 64%
    17:00 +34°C° 0.1 mm 4 mps 753 mmHg 71%
    18:00 +32°C° 0.1 mm 4 mps 753 mmHg 77%
    19:00 +32°C° 0 mm 4 mps 754 mmHg 79%
    20:00 +30°C° 0 mm 4 mps 754 mmHg 81%
    21:00 +30°C° 0 mm 4 mps 755 mmHg 82%
    22:00 +29°C° 0 mm 5 mps 755 mmHg 83%
    23:00 +29°C° 0 mm 5 mps 755 mmHg 84%
    Show more